Miles City, MT

5:28 AM MDT on August 23, 2017 (GMT -0600)
Wiley

Weather History for KMLS - May, 2014

Change the Weather History Date:

Monday, May 19, 2014

  Actual Average Record
Temperature  
Mean Temperature 59 °F 57 °F  
Max Temperature 71 °F 69 °F 94 °F (1992)
Min Temperature 47 °F 44 °F 28 °F (1968)
Degree Days  
Heating Degree Days 6 9  
Month to date heating degree days 289 217  
Since 1 July heating degree days 7989 7463  
Cooling Degree Days 0 1  
Month to date cooling degree days 0 6  
Year to date cooling degree days 0 7  
Growing Degree Days 8 (Base 50)    
Moisture  
Dew Point 45 °F    
Average Humidity 67    
Maximum Humidity 100    
Minimum Humidity 34    
Precipitation  
Precipitation 0.00 in 0.07 in 0.67 in (2011)
Month to date precipitation 2.09 1.24  
Year to date precipitation 3.98 3.76  
Sea Level Pressure  
Sea Level Pressure 29.71 in    
Wind  
Wind Speed 12 mph (WNW)    
Max Wind Speed 25 mph    
Max Gust Speed 33 mph    
Visibility 10 miles    
Events      
T = Trace of Precipitation, MM = Missing Value Source: NWS Daily Summary

Daily Weather History Graph

Daily Weather History Graph

Search for Another Location

Airport or City:

Trip Planner

Search our weather history database for the weather conditions in past years. The results will help you decide how hot, cold, wet, or windy it might be!

Date:

Astronomy

May. 19, 2014 Rise Set
Actual Time 5:25 AM MDT 8:35 PM MDT
Civil Twilight 4:49 AM MDT 9:11 PM MDT
Nautical Twilight 4:02 AM MDT 9:58 PM MDT
Astronomical Twilight 3:05 AM MDT 10:56 PM MDT
Moon 12:19 AM MDT (5/19) 10:32 AM MDT (5/19)
Length of Visible Light 16h 22m
Length of Day
15h 09m
Waning Gibbous, 70% of the Moon is Illuminated
May 19
Waning Gibbous
May 21
Last Quarter
May 28
New
Jun 5
First Quarter
Jun 12
Full

Hourly Weather History & Observations

Time (MDT) Temp. Dew Point Humidity Pressure Visibility Wind Dir Wind Speed Gust Speed Precip Events Conditions
12:14 AM 51.1 °F - N/A% 29.66 in 10.0 mi WSW 10.4 mph - N/A   Scattered Clouds
12:53 AM 51.1 °F - N/A% 29.62 in 10.0 mi West 9.2 mph - N/A   Partly Cloudy
1:53 AM 48.9 °F 48.9 °F 100% 29.62 in 10.0 mi WNW 8.1 mph - N/A   Clear
2:53 AM 48.9 °F 48.0 °F 97% 29.62 in 10.0 mi West 9.2 mph - N/A   Clear
3:53 AM 48.9 °F 46.9 °F 93% 29.62 in 10.0 mi West 10.4 mph - N/A   Clear
4:53 AM 48.0 °F 46.9 °F 96% 29.63 in 10.0 mi West 10.4 mph - N/A   Clear
5:53 AM 46.9 °F 46.0 °F 97% 29.65 in 10.0 mi West 6.9 mph - N/A   Clear
7:53 AM 54.0 °F 50.0 °F 86% 29.68 in 10.0 mi WSW 10.4 mph - N/A   Clear
8:53 AM 57.9 °F 48.9 °F 72% 29.69 in 10.0 mi West 16.1 mph - N/A   Clear
9:53 AM 62.1 °F 45.0 °F 53% 29.69 in 10.0 mi WNW 19.6 mph - N/A   Clear
10:53 AM 64.0 °F 46.9 °F 54% 29.70 in 10.0 mi West 18.4 mph - N/A   Clear
12:53 PM 69.1 °F 46.0 °F 44% 29.71 in 10.0 mi NNW 19.6 mph 24.2 mph N/A   Scattered Clouds
1:53 PM 68.0 °F 43.0 °F 40% 29.72 in 10.0 mi West 15.0 mph - N/A   Scattered Clouds
2:53 PM 70.0 °F 43.0 °F 38% 29.71 in 10.0 mi West 17.3 mph 25.3 mph N/A   Scattered Clouds
3:53 PM 66.9 °F 42.1 °F 40% 29.73 in 10.0 mi WNW 18.4 mph - N/A   Mostly Cloudy
4:53 PM 66.9 °F 37.9 °F 34% 29.74 in 10.0 mi NW 15.0 mph - N/A   Clear
5:53 PM 66.0 °F 39.0 °F 37% 29.77 in 10.0 mi NW 17.3 mph - N/A   Clear
6:53 PM 63.0 °F 43.0 °F 48% 29.79 in 10.0 mi NNW 13.8 mph - N/A   Partly Cloudy
7:53 PM 61.0 °F 44.1 °F 54% 29.79 in 10.0 mi NW 8.1 mph - N/A   Clear
8:53 PM 55.9 °F 44.1 °F 64% 29.82 in 10.0 mi WSW 6.9 mph - N/A   Clear
9:53 PM 54.0 °F 45.0 °F 72% 29.85 in 10.0 mi NNW 13.8 mph - N/A   Scattered Clouds
10:53 PM 50.0 °F 44.1 °F 80% 29.85 in 10.0 mi WNW 8.1 mph - N/A   Clear